Location: Feydey
(46.3431°N, 7.0106°E)
Time: 12:03:43
(UTC+00:00)

NOSS 2-3 (C) - Visible Passes

Search period start: 22 October 2021 00:00
Search period end: 01 November 2021 00:00
Orbit: 551 x 1660 km, 63.4° (Epoch: 11 October)

Date Brightness Start Highest point End Pass type
(mag) Time Alt. Az. Time Alt. Az. Time Alt. Az.
22 Oct 6.1 02:25:06 34° SE 02:25:06 34° SE 02:29:38 10° SE visible
22 Oct 6.1 04:12:37 23° WSW 04:12:37 23° WSW 04:18:06 10° SSW visible
22 Oct 3.4 18:03:00 10° SSW 18:07:00 65° SE 18:09:38 24° NE visible
22 Oct 6.0 19:54:46 10° W 19:57:06 21° NW 19:57:06 21° NW visible
23 Oct 7.1 01:42:59 15° SE 01:42:59 15° SE 01:44:19 10° SE visible
23 Oct 6.2 03:30:31 25° SSW 03:30:31 25° SSW 03:34:30 10° S visible
23 Oct 4.2 17:18:38 10° S 17:22:18 34° ESE 17:26:24 10° NE visible
23 Oct 5.2 19:09:10 10° W 19:12:58 32° NW 19:14:02 29° N visible
24 Oct 6.8 02:48:26 17° S 02:48:26 17° S 02:50:18 10° SSE visible
24 Oct 4.3 18:23:49 10° WSW 18:27:49 50° NW 18:30:51 20° NNE visible
24 Oct 6.6 20:17:06 10° NW 20:18:18 14° NW 20:18:18 14° NW visible
25 Oct 3.5 17:38:48 10° SW 17:42:51 88° NW 17:47:36 10° NE visible
25 Oct 6.0 19:31:12 10° WNW 19:34:28 19° NNW 19:35:02 19° NNW visible
26 Oct 3.8 16:54:09 10° SSW 16:58:03 50° ESE 17:02:31 10° NE visible
26 Oct 5.5 18:45:27 10° W 18:49:05 26° NNW 18:51:42 17° NNE visible
27 Oct 4.9 17:59:56 10° WSW 18:03:50 38° NW 18:08:18 11° NNE visible
27 Oct 6.4 19:53:36 10° NW 19:55:44 14° NNW 19:55:44 14° NNW visible
28 Oct 4.0 17:14:43 10° SW 17:18:46 63° NW 17:23:33 10° NE visible
28 Oct 6.1 19:07:41 10° WNW 19:10:42 17° NNW 19:12:17 15° N visible
29 Oct 5.8 18:21:49 10° WNW 18:25:14 22° NNW 18:28:47 12° NNE visible
29 Oct 6.8 20:15:41 10° NNW 20:16:13 11° NNW 20:16:13 11° NNW visible
30 Oct 5.2 17:36:10 10° W 17:39:55 30° NW 17:44:20 10° NNE visible
30 Oct 6.4 19:30:03 10° NW 19:32:34 14° N 19:32:41 14° N visible
31 Oct 4.5 16:50:46 10° WSW 16:54:44 46° NW 16:59:27 10° NNE visible
31 Oct 6.2 18:44:10 10° NW 18:46:58 15° NNW 18:49:07 12° NNE visible
